Home > Time Zones > World Clock > Weather > France > Caen > Past weeks

Flag for France Weather past 2 weeks in Caen, France

Now
52 °F

Overcast.


Feels Like: 48 °F
Forecast: 45 / 53 °F
Wind: 10 mph from Southwest

Location: Caen Airport

Current Time: Dec 23, 2014 at 4:10:12 AM

Latest Report: Dec 23, 2014 at 3:30 AM


Visibility: N/A

Pressure: 30.27 "Hg

Humidity: 88%

Dew point: 48 °F

Location of CaenLocation

Historic Weather in Caen — Graph

°F

Caen temperature yesterday

Maximum temperature yesterday: 54 °F (at 11:00 AM)
Minimum temperature yesterday: 48 °F (at 12:30 AM)
Average temperature yesterday: 52 °F

Past Weeks' High & Low Weather Summary

 TemperatureHumidityPressure
High55 °F (Dec 17, 3:00 PM)100% (Dec 13, 7:00 PM)30.57 "Hg (Dec 13, 7:00 PM)
Low30 °F (Dec 14, 9:00 AM)62% (Dec 8, 4:00 PM)29.50 "Hg (Dec 12, 11:00 AM)
Average47 °F85%30.10 "Hg
* Reported Dec 8 3:00 AM — Dec 23 3:00 AM, Caen, Weather by CustomWeather, © 2014

Note: Actual official high and low records may vary slightly from our data, if they occured in-between our weather recording intervals... More about our weather records

Advertising

Caen weather history for previous 24 hours

 ConditionsComfort  
Time TempWeatherWind HumidityBarometerVisibility
3:00 AM
Dec 23
52 °FMostly cloudy.13 mph88%30.27 "Hg6 mi
2:30 AM52 °FMostly cloudy.14 mph88%30.27 "HgN/A
2:00 AM52 °FMostly cloudy.12 mph88%30.27 "HgN/A
1:30 AM52 °FOvercast.8 mph88%30.27 "HgN/A
1:00 AM52 °FMostly cloudy.7 mph88%30.27 "HgN/A
12:30 AM52 °FMostly cloudy.13 mph88%30.27 "HgN/A
12:00 AM52 °FMostly cloudy.15 mph88%30.27 "HgN/A
11:30 PM
Dec 22
54 °FOvercast.14 mph82%30.27 "HgN/A
10:30 PM52 °FOvercast.10 mph88%30.30 "HgN/A
10:00 PM52 °FMostly cloudy.12 mph94%30.30 "HgN/A
9:30 PM54 °FMostly cloudy.13 mph88%30.27 "HgN/A
9:00 PM54 °FOvercast.12 mph88%30.27 "HgN/A
8:30 PM54 °FMostly cloudy.13 mph88%30.30 "HgN/A
8:00 PM54 °FOvercast.14 mph88%30.27 "HgN/A
7:30 PM54 °FOvercast.15 mph88%30.27 "HgN/A
7:00 PM52 °FOvercast.15 mph94%30.27 "Hg6 mi
6:30 PM52 °FDrizzle. Fog.12 mph94%30.30 "Hg3 mi
6:00 PM52 °FMostly cloudy.13 mph94%30.30 "Hg4 mi
5:30 PM54 °FMostly cloudy.14 mph88%30.27 "HgN/A
5:00 PM54 °FMostly cloudy.14 mph88%30.27 "HgN/A
4:30 PM54 °FOvercast.14 mph88%30.27 "HgN/A
4:00 PM54 °FOvercast.15 mph88%30.27 "HgN/A
3:30 PM54 °FOvercast.17 mph88%30.27 "HgN/A
3:00 PM54 °FMostly cloudy.16 mph88%30.27 "HgN/A
2:30 PM54 °FMostly cloudy.18 mph88%30.27 "HgN/A
2:00 PM54 °FOvercast.17 mph88%30.30 "HgN/A
1:30 PM54 °FOvercast.17 mph88%30.30 "HgN/A
1:00 PM54 °FOvercast.20 mph88%30.30 "HgN/A
12:30 PM54 °FOvercast.22 mph88%30.30 "HgN/A
12:00 PM54 °FOvercast.21 mph88%30.30 "HgN/A
11:30 AM54 °FOvercast.20 mph82%30.33 "HgN/A
11:00 AM54 °FOvercast.20 mph88%30.33 "HgN/A
10:30 AM52 °FOvercast.18 mph88%30.33 "HgN/A
10:00 AM52 °FMostly cloudy.18 mph88%30.33 "HgN/A
9:30 AM52 °FPartly sunny.20 mph88%30.30 "HgN/A
9:00 AM52 °FMostly cloudy.18 mph88%30.30 "HgN/A
8:30 AM50 °FMostly cloudy.18 mph94%30.30 "HgN/A
8:00 AM50 °FOvercast.18 mph88%30.30 "HgN/A
7:30 AM50 °FOvercast.18 mph88%30.30 "HgN/A
7:00 AM50 °FOvercast.15 mph88%30.30 "HgN/A
6:30 AM50 °FOvercast.15 mph88%30.30 "HgN/A
6:00 AM50 °FOvercast.16 mph88%30.30 "HgN/A
5:30 AM50 °FOvercast.17 mph88%30.33 "HgN/A
4:30 AM50 °FOvercast.16 mph82%30.33 "HgN/A
4:00 AM50 °FOvercast.14 mph82%30.36 "HgN/A
Weather by CustomWeather, © 2014

See weather overviewHow to use our weather pages